This is the latest recevied weather packets stored in our database for station/object WA4IKQ. If no packets are shown the sender has not sent any weather packets the latest 10 day(s).
| Time | Temp. | Humidity | Pressure | Rain* | Wind** | Luminosity | Snow |
|---|---|---|---|---|---|---|---|
| 1777958721 | 20° C | 77% | 1015.5 hPa | 0 mm | 0 m/s | - | - |
| 1777958115 | 20° C | 77% | 1015.7 hPa | 0 mm | 0 m/s | - | - |
| 1777958092 | 20.56° C | 76% | 1015.8 hPa | 0 mm | 0 m/s | - | - |
| 1777957512 | 20.56° C | 76% | 1015.8 hPa | 0 mm | 0 m/s | - | - |
| 1777957216 | 20.56° C | 76% | 1015.7 hPa | 0 mm | 0.89 m/s, 46° | - | - |
| 1777957084 | 20.56° C | 76% | 1015.7 hPa | 0 mm | 0.89 m/s, 48° | - | - |
| 1777956913 | 20.56° C | 76% | 1015.7 hPa | 0 mm | 0.45 m/s, 24° | - | - |
| 1777956613 | 20.56° C | 76% | 1015.7 hPa | 0 mm | 0.89 m/s, 48° | - | - |
| 1777956575 | 20.56° C | 76% | 1015.7 hPa | 0 mm | 0 m/s | - | - |
| 1777956314 | 20.56° C | 76% | 1015.7 hPa | 0 mm | 0 m/s | - | - |
| 1777955973 | 20.56° C | 76% | 1015.8 hPa | 0 mm | 0.89 m/s, 45° | - | - |
| 1777955922 | 20.56° C | 76% | 1015.8 hPa | 0 mm | 0.89 m/s, 45° | - | - |
| 1777955711 | 20.56° C | 75% | 1016 hPa | 0 mm | 0 m/s | - | - |
| 1777955711 | 20.56° C | 76% | 1015.8 hPa | 0 mm | 0.89 m/s, 45° | - | - |
| 1777955394 | 20.56° C | 76% | 1015.9 hPa | 0 mm | 0.45 m/s, 35° | - | - |
| 1777955114 | 20.56° C | 76% | 1015.9 hPa | 0 mm | 0.45 m/s, 35° | - | - |
| 1777954894 | 20.56° C | 76% | 1015.8 hPa | 0 mm | 0.89 m/s, 30° | - | - |
| 1777954593 | 20.56° C | 76% | 1015.9 hPa | 0 mm | 1.34 m/s, 75° | - | - |
| 1777954513 | 20.56° C | 76% | 1015.8 hPa | 0 mm | 0.89 m/s, 30° | - | - |
| 1777954293 | 20.56° C | 75% | 1016 hPa | 0 mm | 1.34 m/s, 42° | - | - |
| 1777954217 | 20.56° C | 76% | 1015.9 hPa | 0 mm | 1.34 m/s, 75° | - | - |
| 1777953913 | 20.56° C | 75% | 1016 hPa | 0 mm | 1.34 m/s, 42° | - | - |
| 1777953496 | 20.56° C | 75% | 1016 hPa | 0 mm | 0.89 m/s, 58° | - | - |
| 1777943710 | 22.22° C | 66% | 1015.7 hPa | 0 mm | 0.89 m/s, 72° | - | - |
| 1777941521 | 22.78° C | 63% | 1015.4 hPa | 0 mm | 2.68 m/s, 24° | - | - |
* Rain latest hour (hover to see other rain measurements)
** Current wind speed in m/s (hover to see current wind gust speed)